Lid_Strength_Index
2 1 2 2 2 2 2 2 1 1 0 1 1 1 1 1 1 1 1 1 2 3 3 2 2 2 2 2 2 3 3 3 5 4 2 2 2 2 2 2 -0 0 0
2 2 2 2 2 3 3 2 1 1 1 1 1 1 1 1 1 1 1 1 2 2 2 2 2 1 2 2 2 3 3 3 3 4 3 2 2 2 2 1 1 -0 0
2 2 2 2 2 3 3 2 1 1 1 1 1 1 1 1 1 1 1 1 1 1 1 2 2 2 3 2 3 2 2 2 2 3 3 3 2 2 2 2 1 1 -0
2 2 2 2 2 2 2 2 2 1 1 1 1 1 1 1 1 1 1 1 1 1 1 1 2 2 2 2 2 2 2 3 3 3 3 3 3 2 2 3 3 2 1
2 2 2 2 2 2 2 2 2 2 1 1 1 2 1 1 1 1 1 1 1 1 1 1 1 1 1 2 2 3 2 2 2 3 4 4 3 4 3 2 3 2 2
2 2 2 2 2 2 2 2 2 2 1 1 2 1 2 2 2 2 1 2 1 2 2 2 1 1 2 2 2 3 2 2 3 4 4 4 4 4 3 3 3 4 4
2 2 2 2 2 2 2 2 2 2 2 1 2 2 2 2 4 3 2 2 2 2 2 2 2 1 2 1 2 3 3 3 3 2 3 3 3 3 3 3 3 4 3
3 2 2 2 2 2 2 2 2 2 2 2 2 2 2 2 3 3 3 2 1 2 2 2 2 2 1 1 2 2 2 2 2 2 2 2 2 2 2 2 3 4 3
3 3 2 2 2 2 2 2 2 2 2 2 1 2 2 2 4 4 4 2 2 2 1 1 2 2 3 4 2 2 2 2 2 4 4 3 3 3 3 3 3 4 5
3 2 2 2 2 2 2 2 2 2 2 2 2 1 2 1 5 6 5 2 3 3 2 2 4 2 5 6 2 2 3 3 2 2 2 3 3 2 3 2 4 5 5
2 2 2 2 2 2 2 2 2 2 2 2 2 2 1 2 2 6 6 2 2 3 3 3 3 5 7 7 6 2 3 3 3 3 3 4 3 1 2 2 2 3 4
2 2 2 2 2 2 2 2 2 2 2 2 2 2 2 1 5 7 8 6 4 2 3 2 3 6 8 9 8 6 6 5 4 4 5 4 3 3 3 3 2 2 2
2 3 2 2 2 2 2 2 2 2 3 3 3 3 3 2 1 7 8 8 7 3 2 4 6 8 10 8 8 7 7 5 5 6 4 4 3 3 3 3 2 2 2
3 3 3 3 3 3 2 2 2 3 3 3 3 3 3 2 2 2 4 6 8 6 5 5 5 6 6 6 7 7 5 6 5 3 3 3 3 3 4 4 3 3 3
3 3 3 3 3 3 4 5 2 4 3 3 3 2 3 3 2 5 5 4 4 5 6 5 4 5 5 5 6 5 5 4 4 4 4 4 4 4 4 4 4 4 5
3 3 3 3 4 3 3 4 8 10 8 7 9 7 5 9 10 12 11 11 11 10 5 5 4 4 5 5 5 4 4 3 4 4 4 4 5 4 4 3 4 5 5
3 3 3 4 3 3 3 3 6 7 10 11 11 11 10 9 10 11 12 12 12 9 4 3 3 4 4 5 4 4 4 4 4 4 4 5 5 4 4 3 3 4 5
3 3 3 3 3 4 4 4 4 6 5 5 10 10 10 10 9 12 10 10 7 7 5 4 4 4 5 4 4 4 6 5 5 5 5 5 4 4 5 5 5 5 4
3 2 2 2 2 4 4 4 4 4 5 4 4 8 10 11 12 12 12 5 5 4 4 5 4 5 4 4 4 6 5 5 5 5 5 4 4 5 5 5 4 5 5
3 2 2 3 2 3 3 3 3 3 4 5 5 5 5 6 5 7 8 6 3 3 3 4 5 4 4 5 5 5 6 6 5 5 5 4 5 4 4 3 3 3 3
2 2 2 2 3 3 3 3 3 3 3 4 5 5 7 4 4 5 6 5 3 3 4 5 5 4 5 5 5 5 5 5 5 5 5 5 4 4 3 2 3 3 4
3 2 3 3 4 3 3 3 3 3 3 3 4 4 9 2 3 4 5 5 3 3 3 4 5 5 4 4 4 4 4 4 5 5 4 4 4 4 2 3 3 4 4
3 3 4 4 4 5 3 3 3 4 4 4 3 3 5 3 3 3 4 4 3 4 5 5 5 4 3 3 3 3 3 4 3 3 4 4 4 4 4 4 4 5 6
3 4 4 5 4 4 3 3 3 6 3 3 3 3 2 4 3 3 3 3 4 4 4 4 3 3 3 3 3 3 3 3 3 3 3 4 4 6 6 6 6 6 7
3 4 4 4 4 3 3 3 3 3 3 3 3 3 3 2 2 2 2 3 3 4 3 3 2 2 2 3 3 3 6 10 4 7 4 4 4 5 6 7 7 7 6
2 3 3 3 3 3 3 3 3 3 3 2 2 2 3 3 2 2 2 3 3 3 3 2 2 2 2 2 2 7 13 14 9 11 4 5 5 6 6 6 6 6 6